CAPELLA-14 (ACADIA)

导读 | 星芒AI

CAPELLA-14(又名ACADIA)是由Capella Space公司发射的合成孔径雷达(SAR)成像卫星,于2022年发射。该卫星具备高分辨率雷达成像能力,可在任何天气和光照条件下提供清晰的地球观测图像。ACADIA卫星支持多种成像模式,适用于灾害监测、农业管理、安全与国防等多个领域。作为Capella Earth Imaging星座的一部分,ACADIA增强了Capella提供全球快速重访和实时监控的能力,提升了商业和政府用户对地球表面变化的洞察力。

基本信息
目录编号:
59444
目录名称:
CAPELLA-14 (ACADIA)
国际标识:
2024-066C
轨道中心:
EARTH
卫星名称:
CAPELLA-14 (ACADIA)
卫星全名:
--
卫星状态:
在轨 (已飞行617 天)
发射日期:
2024-04-07 UTC
国别 :
美国 (US)
星等 :
--
轨道信息
数据来源 国际轨道数据 AOE轨道数据
星历时间 2025-12-15T01:48:17+0800
1天前
查看轨道信息
2025-12-12T13:00:00+0800
3天前
查看轨道信息
半长轴 6923.999km 6924.268km
偏心率 0.0001306 0.0001549
轨道倾角 45.603° 45.604°
近地点辐角 349.105° 344.891°
升交点赤经 145.635° 158.889°
平近点角 10.980° 298.443°
近地点 544.959km 545.06km
远地点 546.769km 547.206km
周期 95.564分钟 95.570分钟
每日圈数 15.068406 15.067527
详细信息
使用方式:
暂无
2D轨道图
3D轨道图
轨道高度分析图
轨道倾角分析图
轨道综合分析图
查看轨道综合分析图